Regional Weather Roundup
Issued by NWS Goodland, KS

Home | Current Version | Previous Version | Text Only | Print | Product List | Glossary On
Versions: 1 2 3 4 5 6 7 8 9 10 11 12 13 14 15 16 17 18 19 20 21 22 23 24 25 26 27 28 29 30 31 32 33 34 35 36 37 38 39 40 41 42 43 44 45 46 47 48 49 50
000
ASUS43 KGLD 111708
RWRGLD

GOODLAND FORECAST AREA HOURLY WEATHER ROUNDUP
NATIONAL WEATHER SERVICE GOODLAND KS
1000 AM MST THU FEB 11 2016

...OFFICIAL OBSERVATIONS...

CITY           SKY/WX    TMP DP  RH WIND       PRES   REMARKS
GOODLAND KS    CLOUDY    50  25  37 SW13      30.13F
HILL CITY KS   CLOUDY    30  28  92 S6        30.22S FOG
IMPERIAL NEB   MOSUNNY   41  29  62 W6        30.09F
MCCOOK NEB     CLOUDY    29  29 100 SE9       30.15F FOG
AKRON CO       CLOUDY    45  25  45 W12       30.11S
BURLINGTON CO  CLOUDY    44  27  51 SW12      30.14S
LIMON CO       CLOUDY    41  23  48 NE3       30.17F
$$

...UNOFFICIAL OBSERVATIONS...

CITY           SKY/WX    TMP DP  RH WIND       PRES   REMARKS
COLBY KS       SUNNY     43  34  70 S9        30.14F
GOVE KS          N/A     38  32  79 MISG        N/A
LENORA KS        N/A     28  32 100 MISG        N/A
NORTON KS      CLOUDY    28  27  93 SE8       30.18F FOG
SHARON SPRINGS   N/A     51  31  45 SW15        N/A
KIT CARSON CO    N/A     52  26  36 MISG        N/A
YUMA CO          N/A     47  28  48 W9          N/A
$$



USA.gov is the U.S. government's official web portal to all federal, state and local government web resources and services.